CET,Max TemperatureF,Mean TemperatureF,Min TemperatureF,Max Dew PointF,MeanDew PointF,Min DewpointF,Max Humidity, Mean Humidity, Min Humidity, Max Sea Level PressureIn, Mean Sea Level PressureIn, Min Sea Level PressureIn, Max VisibilityMiles, Mean VisibilityMiles, Min VisibilityMiles, Max Wind SpeedMPH, Mean Wind SpeedMPH, Max Gust SpeedMPH,PrecipitationIn, CloudCover, Events, WindDirDegrees
2012-10-1,67,56,46,52,47,44,100,74,35,30.09,30.00,29.95,19,7,6,18,8,,0.01,6,Rain,201
2012-10-2,65,60,55,54,51,46,94,74,40,29.98,29.95,29.89,19,7,6,17,10,,0.00,6,Rain,216
2012-10-3,61,56,51,55,51,50,94,85,68,29.86,29.80,29.77,19,6,2,20,15,,0.63,6,Rain,229
2012-10-4,61,55,49,52,47,41,96,79,48,29.96,29.80,29.65,6,5,2,21,7,26,0.08,5,Rain,256
2012-10-5,65,57,49,59,54,46,94,87,75,29.92,29.81,29.71,19,6,2,26,14,41,0.01,6,Rain,227
2012-10-6,59,55,51,59,53,50,94,90,82,29.98,29.88,29.74,19,6,3,16,9,,0.20,6,Rain,52
2012-10-7,60,50,40,48,44,39,100,78,48,30.23,30.13,29.98,16,7,4,8,5,,0.00,4,Fog,48
2012-10-8,54,48,43,52,46,41,95,88,75,30.22,30.03,29.83,19,5,1,12,5,,0.02,8,Rain,119
2012-10-9,58,54,50,54,48,45,100,81,59,30.02,29.96,29.83,19,5,1,12,6,,0.00,6,Fog,42
2012-10-10,57,50,44,45,41,37,87,70,38,30.01,29.98,29.95,19,8,6,13,7,,0.00,5,,76
2012-10-11,61,50,40,55,48,37,95,86,67,29.92,29.75,29.59,7,5,2,12,7,,0.12,6,Rain,132
2012-10-12,58,53,46,59,49,36,100,80,44,29.89,29.73,29.59,14,6,4,28,12,,0.01,5,Rain,239
2012-10-13,52,48,44,50,45,41,94,88,76,29.89,29.72,29.62,19,6,2,16,11,,0.24,7,Rain,211
2012-10-14,54,46,38,45,40,36,100,80,50,29.65,29.55,29.50,12,6,6,14,7,,0.01,4,Rain,272
2012-10-15,56,48,41,48,45,39,100,84,59,29.74,29.65,29.50,6,6,3,20,13,,0.12,5,Rain,244
2012-10-16,59,52,46,52,46,41,94,80,51,29.78,29.68,29.56,19,6,2,22,15,,0.01,5,Rain,209
2012-10-17,59,52,44,55,50,43,100,92,82,29.77,29.65,29.56,19,6,2,20,10,,0.28,7,Rain,171
2012-10-18,61,57,53,59,55,52,100,90,77,29.77,29.68,29.62,16,6,2,12,7,,0.12,7,Rain-Thunderstorm,182
2012-10-19,66,61,56,57,56,54,100,86,56,29.84,29.78,29.74,12,5,0,14,6,,0.47,7,Fog-Rain,149
2012-10-20,58,56,55,57,55,54,94,90,82,30.07,29.99,29.83,12,5,2,13,6,,0.02,7,Rain,308
2012-10-21,59,56,53,57,55,54,100,96,94,30.02,30.00,29.95,6,2,0,16,10,,0.04,7,Fog-Rain,38
2012-10-22,75,64,53,61,58,54,100,88,56,30.15,30.07,30.01,12,2,0,8,3,,0.00,,Fog,59
2012-10-23,68,60,51,59,55,50,100,87,60,30.21,30.17,30.15,6,2,0,9,2,,0.00,2,Fog,15
2012-10-24,64,57,50,54,51,48,100,84,64,30.16,30.09,30.04,5,3,2,9,4,,0.00,1,,92
2012-10-25,55,53,50,54,51,46,100,94,77,30.04,29.99,29.92,6,2,0,18,8,,0.01,7,Fog-Rain,60
2012-10-26,46,42,39,46,40,28,93,82,57,29.96,29.82,29.68,6,6,4,18,15,,0.12,8,Rain,50
2012-10-27,46,40,34,39,32,27,87,78,57,30.01,29.80,29.65,6,6,4,17,10,,0.08,4,Rain,4
2012-10-28,51,42,32,39,33,27,100,75,40,30.05,30.01,29.95,6,6,6,14,7,,0.00,4,,268
2012-10-29,48,46,43,45,43,37,100,91,76,29.96,29.86,29.74,7,6,4,15,12,,0.20,7,Rain,209
2012-10-30,53,46,39,48,43,37,100,85,62,29.74,29.66,29.59,16,5,0,15,9,,0.04,6,Fog-Rain,252
2012-10-31,53,46,39,45,41,36,100,81,48,29.60,29.41,29.21,19,7,3,17,8,,0.00,7,,180